Location: Newark
(46.1292°N, 1.0086°W)
Time: 21:07:51
(UTC+00:00)

Transit 4A - Pass Details

Date: 19 November 2019
Orbit: 870 x 975 km, 66.8° (Epoch: 12 December)

Event Time Altitude Azimuth Distance (km) Brightness Sun altitude
Exits shadow 05:18:21 - 338° (NNW) 2,713 10.0 -19.1°
Reaches altitude 10° 05:18:46 10° 340° (NNW) 2,578 9.9 -19.0°
Maximum altitude 05:23:58 30° 41° (NE) 1,524 9.3 -18.1°
Drops below altitude 10° 05:29:04 10° 103° (ESE) 2,525 11.5 -17.3°
Sets 05:31:50 0° 113° (ESE) 3,453 12.5 -16.8°
